#timestamp,LO_Frequency,Hit,StdDev 
1539842415.3,286046999.0,N
1539842435.1,286047001.0,N
1539842455.8,286047000.3,N
1539842475.7,286047000.6,N
1539842495.5,286047002.4,N
1539842515.4,286047002.5,N
1539842535.2,286047000.1,N
1539842555.0,286047002.6,N
1539842555.9,286047002.6,N
1539842575.8,286047000.6,N
1539842595.6,286047000.9,N
1539842615.4,286047000.2,N
1539842635.3,286047000.6,N
1539842655.1,286047000.3,N
1539842675.9,286047000.2,N
1539842695.7,286047002.5,N
1539842715.5,286047002.1,N
1539842735.4,286047002.7,N
1539842755.2,286047002.5,N
1539842775.0,286047001.0,N
1539842775.9,286047001.0,N
1539842795.8,286046999.9,N
1539842815.6,286047002.7,N
1539842835.5,286047002.5,N
1539842855.3,286047001.3,N
1539842875.1,286047004.2,N
1539842895.9,286047004.3,N
1539842915.7,286047003.4,N
1539842935.5,286047003.2,N
1539842955.4,286047004.1,N
1539842975.2,286047001.5,N
1539842995.1,286047001.9,N
1539842996.0,286047001.9,N
1539843015.8,286047004.2,Y
1539843035.6,286046999.7,P
1539843055.5,286047000.7,N
1539843075.3,286047000.9,N
1539843095.1,286046999.9,N
1539843115.9,286047000.5,N
1539843135.7,286046999.8,N
1539843155.6,286046999.7,N
1539843175.4,286046999.9,N
1539843195.2,286046999.7,N
1539843215.1,286047002.1,Y
1539843216.0,286047002.1,P
1539843235.8,286047000.1,N
1539843255.7,286047002.5,N
1539843275.5,286047000.4,N
1539843295.3,286047000.6,N
1539843315.2,286047002.3,N
1539843335.9,286047003.8,Y
1539843355.7,286047002.3,P
1539843375.6,286047000.8,N
1539843395.4,286047000.9,N
1539843415.3,286047000.3,N
1539843435.1,286047000.1,N
1539843436.0,286047000.1,N
1539843455.8,286047000.5,N
1539843475.7,286047000.3,N
1539843495.5,286047002.5,Y
1539843515.3,286047000.1,P
1539843535.2,286047002.8,P
1539843555.0,286047002.1,N
1539843555.9,286047002.1,N
1539843575.8,286047002.2,N
1539843595.6,286047000.2,N
1539843615.4,286047000.5,N
1539843635.3,286047002.8,N
1539843655.1,286047002.3,N
1539843675.9,286047000.4,N
1539843695.7,286047000.4,N
1539843715.5,286047001.2,N
1539843735.4,286046998.3,N
1539843755.2,286046998.9,N
1539843775.1,286046998.2,N
1539843776.0,286046998.2,N
1539843795.8,286046999.4,N
1539843815.6,286046996.6,N
1539843835.5,286046996.7,N
1539843855.3,286046996.7,N
1539843875.1,286046997.6,N
1539843895.9,286046996.8,N
1539843915.7,286046996.8,N
1539843935.6,286046996.9,N
1539843955.4,286046995.4,N
1539843975.2,286046994.9,N
1539843995.1,286046994.9,N
1539843996.0,286046994.9,N
1539844015.8,286046994.9,N
1539844035.7,286046995.5,N
1539844055.5,286046995.1,N
1539844075.3,286046998.0,N
1539844095.2,286046996.9,N
1539844115.0,286046998.0,N
1539844115.9,286046998.0,N
1539844135.8,286046997.8,N
1539844155.6,286046995.4,N
1539844175.4,286046993.4,Y
1539844195.3,286046995.1,P
1539844215.1,286046997.6,N
1539844235.8,286046996.8,N
1539844255.7,286046999.6,N
1539844275.5,286046998.9,N
1539844295.4,286046998.4,N
1539844315.2,286046998.6,N
1539844335.0,286046996.8,N
1539844335.9,286046996.8,N
1539844355.8,286046996.5,N
1539844375.6,286046998.7,N
1539844395.5,286046998.6,N
1539844415.3,286046999.2,N
1539844435.1,286046999.3,N
1539844455.9,286046999.3,N
1539844475.7,286046996.5,N
1539844495.6,286046999.6,N
1539844515.4,286046997.0,N
1539844535.2,286046997.8,N
1539844555.1,286046995.8,Y
1539844556.0,286046995.8,P
1539844575.8,286046996.6,P
1539844595.6,286046999.6,N
1539844615.5,286046996.7,N
1539844635.3,286046997.7,N
1539844655.2,286046996.2,Y
1539844675.9,286046997.0,P
1539844695.7,286046999.6,N
1539844715.6,286046999.5,N
1539844735.4,286046997.3,N
1539844755.2,286046998.0,N
1539844775.1,286046995.1,Y
1539844776.0,286046995.1,P
1539844795.8,286046995.0,P
1539844815.7,286046995.5,P
1539844835.5,286046996.2,N
1539844855.3,286046995.7,Y
1539844875.2,286046998.7,P
1539844895.0,286047000.6,N
1539844895.9,286047000.6,N
1539844915.8,286046998.2,N
1539844935.6,286047000.9,N
1539844955.4,286046996.7,N
1539844975.3,286046994.9,N
1539844995.1,286046995.2,N
1539845015.8,286046995.7,N
1539845035.7,286046996.1,N
1539845055.5,286046995.7,N
1539845075.4,286046993.6,N
1539845095.2,286046992.1,Y
1539845115.0,286046986.3,P
1539845115.9,286046997.9,N
1539845135.8,286046997.0,N
1539845155.6,286046997.1,N
1539845175.4,286046998.3,N
1539845195.3,286046999.6,N
1539845215.1,286046997.4,N
1539845235.9,286046995.1,N
1539845255.7,286046997.6,N
1539845275.5,286046995.4,N
1539845295.4,286046995.1,N
1539845315.2,286046995.0,N
1539845335.0,286046997.8,N
1539845336.0,286046997.8,N
1539845355.8,286046997.4,N
1539845375.6,286046995.5,N
1539845395.5,286046994.1,N
1539845415.3,286046994.1,N
1539845435.1,286046994.1,N
1539845455.9,286046991.7,Y
1539845475.7,286046996.7,P
1539845495.6,286046997.4,P
1539845515.4,286046997.5,P
1539845535.2,286046998.0,Y
1539845555.1,286046997.6,P
1539845556.0,286046997.6,P
1539845575.8,286046998.0,P
1539845595.6,286046994.9,Y
1539845615.5,286046999.6,P
1539845635.3,286046996.6,P
1539845655.2,286046996.9,N
1539845675.9,286046997.5,N
1539845695.7,286046995.0,Y
1539845715.6,286046996.5,P
1539845735.4,286046997.9,P
1539845755.2,286046996.8,P
1539845775.1,286046996.9,Y
1539845776.0,286046996.9,P
1539845795.8,286047000.4,N
1539845815.7,286046999.9,N
1539845835.5,286047000.8,N
1539845855.3,286046999.9,N
1539845875.2,286046999.9,N
1539845895.0,286046999.9,N
1539845895.9,286046999.9,N
1539845915.8,286046999.3,N
1539845935.6,286046997.5,N
1539845955.4,286046995.8,Y
1539845975.3,286046997.4,P
1539845995.1,286046997.9,N
